Temperature
9 10 10 10 11 11 11 11 11 11 11 12 12 12 12 12 12 11 11 11 11 11 11 11 11 11 11 11 11 10 10 10 10 10 9 9 9 9 9 8 8 8 8
9 9 10 10 10 10 10 11 11 11 11 11 11 11 11 11 11 11 11 11 11 11 11 11 11 11 11 11 10 10 10 9 9 9 8 8 8 8 8 8 8 8 7
9 9 9 9 10 10 10 10 10 10 10 10 10 10 10 10 10 11 11 11 10 10 11 11 11 11 10 10 10 10 9 9 9 8 8 7 7 7 8 7 7 7 7
8 8 9 9 9 9 9 10 10 10 10 10 10 10 10 10 10 10 10 10 10 10 10 10 10 10 10 10 9 9 9 9 8 8 8 7 7 7 6 7 7 7 7
8 8 8 8 8 9 9 9 9 9 9 9 9 10 10 10 10 10 10 10 10 10 10 9 10 10 9 9 9 9 9 8 8 8 7 7 7 6 6 6 6 6 6
8 8 8 8 8 8 8 8 9 9 9 9 9 9 9 9 9 9 9 9 9 9 9 9 9 9 9 9 9 8 8 8 8 8 7 7 7 6 6 6 6 6 6
7 7 7 7 8 8 8 8 8 8 8 8 8 8 8 8 9 9 9 9 9 9 9 9 9 9 8 8 8 8 8 8 8 7 7 7 6 6 6 6 5 5 5
7 7 7 7 7 7 7 7 7 8 8 8 8 8 8 8 8 8 8 8 8 8 8 8 8 8 8 8 8 8 7 7 7 7 7 7 6 6 6 5 5 5 5
6 6 6 7 7 7 7 7 7 7 7 7 7 7 7 7 7 7 7 7 8 8 8 8 8 8 8 8 7 7 7 7 7 7 6 6 6 6 5 5 5 5 4
5 6 6 6 6 6 7 6 6 6 6 7 7 7 7 7 7 7 7 7 7 7 7 7 7 7 7 7 7 7 7 7 7 6 6 6 6 5 5 5 5 5 4
5 5 5 5 6 6 6 6 6 6 6 6 6 6 6 6 6 6 6 6 6 6 7 7 7 7 7 7 7 6 6 6 6 6 6 6 5 5 5 5 5 5 4
4 5 5 5 5 5 5 5 5 5 5 5 5 6 6 6 6 6 6 6 6 6 6 6 6 6 6 6 6 6 6 6 6 6 6 5 5 5 5 5 4 4 4
4 4 4 4 4 4 4 4 5 5 5 5 5 5 5 5 5 5 5 5 5 5 6 6 6 6 6 6 6 6 6 6 5 5 5 5 5 5 5 4 4 4 4
3 3 3 3 4 4 4 4 4 4 4 4 4 4 5 5 5 5 5 5 5 5 5 5 5 5 5 5 5 5 5 5 5 5 5 5 5 5 4 4 4 3 3
2 2 3 3 3 3 3 3 4 4 4 4 4 4 4 4 4 4 4 4 4 4 5 4 5 5 5 5 5 5 5 5 5 5 4 4 4 4 4 4 4 3 3
2 2 2 2 2 2 3 3 3 3 3 4 4 3 3 3 3 4 4 4 4 4 4 4 4 4 4 4 4 4 4 4 4 4 4 4 4 4 4 4 3 3 3
1 1 1 2 2 2 2 2 3 3 3 3 3 3 3 3 3 3 3 3 3 3 4 4 4 4 4 4 4 4 4 4 4 4 4 4 4 4 4 3 3 3 3
1 1 1 1 1 2 2 2 2 2 2 2 3 2 3 3 3 3 3 3 3 3 3 3 3 3 3 3 3 3 3 3 3 3 3 3 3 3 3 3 3 3 3
0 0 1 1 1 1 1 2 2 2 2 2 2 2 2 2 2 2 2 2 2 2 2 2 2 3 3 3 3 3 2 3 3 3 3 3 3 3 3 3 3 3 3
-0 0 0 1 1 1 1 1 1 1 1 1 1 1 1 2 2 2 2 2 2 2 2 2 2 2 2 2 2 2 2 2 3 3 2 2 2 2 2 2 2 2 2
-1 -0 -0 0 0 0 0 1 1 1 1 1 1 1 1 1 1 1 1 1 1 1 1 1 1 1 1 1 2 2 2 2 2 2 2 2 2 2 2 2 2 2 1
-1 -1 -0 -0 -0 -0 -0 -0 0 0 0 0 0 0 0 0 0 1 1 1 1 1 1 1 1 1 1 1 1 1 1 1 1 2 2 2 2 2 2 1 1 1 1
-1 -1 -1 -1 -1 -1 -1 -1 -1 -1 -0 -0 -0 -0 -0 -0 -0 0 0 0 0 0 0 0 0 0 0 1 1 1 1 1 1 1 1 1 1 1 1 1 1 1 1
-2 -2 -2 -1 -1 -1 -1 -1 -1 -1 -1 -1 -1 -1 -1 -1 -1 -1 -1 -0 -0 -0 -0 -0 -0 -0 -0 -0 -0 0 0 0 0 1 1 1 1 1 1 1 1 1 1
-2 -2 -2 -2 -2 -2 -2 -2 -2 -2 -2 -1 -1 -1 -1 -1 -1 -1 -1 -1 -1 -1 -1 -1 -1 -1 -0 -0 -1 -1 -0 -0 -0 0 0 0 1 1 1 1 1 1 0
-3 -3 -3 -3 -3 -3 -2 -2 -2 -2 -2 -2 -2 -2 -2 -2 -2 -2 -2 -2 -2 -2 -2 -2 -1 -1 -1 -1 -1 -1 -1 -1 -1 -1 -0 -0 0 0 0 0 0 0 0
Wind_Speed
1 2 3 4 4 4 4 4 3 3 3 2 2 2 2 1 1 2 3 4 4 5 4 3 2 2 2 2 1 1 2 2 2 2 3 3 3 3 2 2 2 4 5
2 2 3 3 3 3 3 3 3 2 2 2 2 2 2 1 1 2 3 3 4 4 4 3 2 2 2 2 2 2 1 1 2 2 2 2 3 3 3 2 2 3 4
4 3 3 2 3 3 2 2 2 2 2 2 2 3 3 3 2 2 1 2 3 3 3 3 2 2 2 2 2 2 2 1 0 2 2 1 1 3 3 2 3 4 3
4 4 3 2 3 2 2 2 2 2 2 3 4 4 3 2 1 1 1 1 2 3 3 3 3 2 2 2 2 2 2 3 2 0 1 1 2 1 2 3 3 4 3
5 5 4 4 3 3 2 2 2 2 2 2 3 4 2 1 1 1 1 1 1 2 3 2 2 2 2 2 2 2 2 2 3 2 0 0 1 1 1 3 4 4 3
4 3 2 2 2 2 2 2 2 2 1 2 2 3 3 2 2 1 1 0 1 1 2 2 2 1 1 2 2 1 3 2 2 1 1 1 1 1 1 2 4 4 4
4 4 3 3 2 2 2 2 2 1 1 1 2 2 3 3 3 2 1 1 0 1 1 1 1 0 1 1 1 1 1 2 2 2 2 1 1 1 1 1 2 3 3
4 4 4 4 3 2 2 2 2 1 1 1 1 2 2 2 1 1 1 1 1 1 1 1 1 1 0 1 1 1 1 1 2 2 2 1 1 1 1 1 1 3 3
3 2 2 2 2 2 2 2 2 1 1 1 1 2 2 2 1 1 1 1 0 0 1 1 1 1 0 1 2 2 2 2 2 2 2 2 2 1 1 1 1 1 3
2 2 2 1 2 2 1 1 1 1 0 1 1 1 1 1 1 1 1 1 0 1 1 0 0 0 0 1 1 1 1 1 1 2 2 2 2 2 1 1 1 1 2
2 2 1 2 2 2 2 1 1 1 1 1 1 1 1 1 1 1 1 1 0 0 0 1 1 1 1 1 1 1 1 2 2 2 2 3 2 2 2 1 1 1 1
2 2 2 2 3 2 2 1 0 0 1 0 1 1 1 1 1 1 0 0 0 1 1 1 1 1 1 1 2 2 2 2 2 2 2 3 2 2 2 2 2 2 2
3 3 3 2 1 1 1 1 1 1 1 0 1 1 1 1 0 1 1 1 1 1 1 1 1 1 1 2 2 2 2 3 3 3 3 3 2 3 3 3 3 2 2
2 2 2 1 1 1 1 1 1 1 1 0 0 0 0 0 0 1 1 1 1 1 1 1 1 1 2 2 1 1 1 2 2 3 3 3 3 4 4 3 3 2 2
1 1 1 1 1 2 2 2 2 1 1 0 0 1 1 0 0 1 1 1 1 1 1 1 2 1 2 2 1 1 1 1 2 3 3 3 3 3 3 2 2 1 1
1 1 1 1 1 2 2 2 2 2 1 1 1 1 0 0 1 1 1 1 1 2 2 1 1 2 2 3 1 0 1 1 2 3 3 3 2 3 3 2 2 1 2
2 2 2 2 2 2 2 2 2 2 0 0 1 1 0 1 1 1 1 1 1 1 2 2 2 3 3 3 2 1 1 1 2 2 2 2 2 2 2 2 2 2 2
3 3 3 3 3 2 2 2 1 1 0 1 1 1 1 1 1 1 1 1 2 2 2 2 2 2 4 4 2 2 1 1 2 2 2 3 2 2 1 1 2 2 3
3 3 3 3 2 2 2 1 1 1 1 1 1 2 1 2 1 2 2 2 2 2 2 2 2 2 4 4 2 1 1 1 2 2 2 2 3 3 1 1 1 3 3
3 3 3 2 2 2 1 0 1 1 1 2 2 2 2 2 2 2 2 2 2 2 2 2 2 3 3 4 2 1 1 1 2 2 2 2 3 3 1 1 1 2 3
3 3 3 2 2 2 1 0 1 2 3 2 2 2 2 2 2 1 1 1 1 1 1 2 2 2 3 3 3 2 1 2 2 2 2 2 3 3 3 1 1 2 2
3 3 3 3 3 2 1 1 2 3 2 2 2 2 2 2 2 1 1 1 1 1 1 1 2 2 2 3 3 2 2 2 2 2 2 2 2 2 2 2 2 1 1
3 3 2 3 3 2 1 2 3 2 2 2 2 2 2 2 2 1 1 1 1 1 2 2 2 3 2 3 3 3 3 2 1 2 2 2 2 2 2 1 1 1 0
3 3 2 3 3 3 2 2 3 2 1 2 2 2 2 2 2 2 1 1 1 2 2 2 2 3 3 2 2 2 2 2 1 1 1 1 1 1 1 1 1 1 0
3 2 2 3 4 4 3 3 2 2 2 2 2 2 2 2 2 2 2 2 2 3 3 3 3 3 3 4 4 2 2 1 0 1 0 0 0 0 1 1 1 1 1
3 2 3 3 4 4 4 4 3 2 2 2 2 2 2 2 2 2 2 3 3 4 4 4 3 3 4 5 4 4 2 1 1 1 0 0 0 1 1 1 1 1 1
Wind_Direction
161 103 94 101 100 90 91 97 101 86 100 97 107 122 132 137 102 71 93 117 125 130 118 101 116 126 150 152 130 108 79 58 60 52 15 355 359 13 360 12 23 10 5
109 110 100 97 110 111 101 96 89 90 108 127 145 157 152 153 125 67 71 92 111 123 128 123 144 140 145 131 113 103 88 52 65 90 68 1 348 352 354 359 5 360 3
170 160 136 130 127 123 132 126 111 85 79 91 91 84 74 63 55 39 49 54 97 111 111 128 122 130 134 145 153 141 128 141 32 101 112 110 268 309 319 339 354 352 349
173 166 159 155 163 167 143 122 114 90 75 106 113 121 123 138 198 196 170 52 88 102 100 99 107 123 134 153 170 157 143 147 166 194 54 145 172 210 300 316 333 337 337
183 177 176 178 179 160 137 119 108 90 78 112 132 135 123 137 104 98 101 74 41 66 82 105 101 117 142 166 171 174 154 158 170 175 169 43 38 127 227 290 312 325 315
180 170 161 141 134 122 112 105 107 93 73 108 134 136 131 117 104 92 106 87 27 28 45 69 89 118 141 169 183 182 176 177 179 185 174 175 181 231 229 270 297 302 305
162 150 142 142 134 128 125 115 110 97 64 91 123 130 137 144 153 161 174 159 80 342 303 37 47 145 171 157 149 169 186 187 185 199 215 214 224 195 213 259 287 298 299
156 159 166 164 160 154 145 138 122 99 84 99 136 129 127 129 149 163 171 191 203 216 308 18 36 40 112 146 155 188 214 204 205 223 223 241 260 216 205 216 268 308 303
151 150 143 148 157 156 164 165 141 98 71 77 117 127 124 116 126 142 141 173 180 359 36 40 50 33 140 179 181 207 219 215 219 222 227 239 255 242 239 221 211 229 295
108 111 112 120 123 138 127 109 116 132 47 63 103 106 135 141 117 124 124 117 49 43 45 261 198 235 256 222 194 217 227 215 238 226 223 240 254 253 251 238 248 237 244
114 124 112 99 88 74 74 82 76 51 31 46 75 86 108 112 104 124 149 145 43 37 175 252 225 213 211 222 205 216 209 212 244 256 244 246 246 246 255 248 248 265 257
88 79 91 87 78 67 48 29 8 14 329 284 92 88 86 94 89 82 51 33 72 323 307 294 247 235 234 222 209 217 215 226 241 251 259 266 254 247 252 249 252 257 259
75 69 67 67 62 46 4 326 323 313 312 20 104 66 72 85 70 17 6 13 15 345 342 327 275 265 265 243 226 216 221 234 245 245 246 259 256 251 260 259 258 263 282
82 76 58 28 358 322 302 298 306 311 322 24 118 166 227 210 292 355 4 2 354 337 309 296 279 277 280 262 243 225 239 249 260 260 255 252 251 250 252 256 259 270 289
55 50 28 347 336 329 318 308 306 311 316 306 273 247 246 308 5 351 342 3 351 331 317 322 317 307 277 266 270 229 256 264 273 276 270 269 271 290 265 263 262 257 279
356 343 330 316 297 295 298 294 296 300 299 238 260 282 305 339 328 319 343 1 349 344 342 318 304 294 284 291 299 280 228 258 272 277 280 280 278 294 309 289 280 265 253
338 325 307 285 274 274 276 265 272 292 330 353 354 338 318 313 310 319 344 332 321 325 314 308 296 289 288 295 283 312 249 247 265 279 280 287 290 311 282 300 307 286 286
326 316 310 302 296 293 297 285 297 311 4 20 359 343 317 284 302 302 291 295 302 293 284 288 287 291 295 300 297 305 292 257 262 266 269 273 273 280 307 313 318 285 276
307 304 302 300 304 304 302 318 344 351 10 353 327 316 303 275 265 267 268 279 286 291 286 283 280 284 292 298 299 330 269 265 275 281 277 283 275 277 311 311 309 304 294
327 328 329 335 336 321 319 47 330 342 309 299 296 301 300 276 257 259 270 278 269 274 289 296 282 275 283 292 292 306 255 264 282 288 278 281 294 297 302 260 262 291 290
334 342 346 339 325 327 347 340 307 288 296 313 311 318 316 292 270 272 284 284 283 286 287 298 305 294 293 294 290 288 266 252 259 268 275 279 297 308 307 309 271 283 313
344 349 350 337 327 341 354 317 301 303 320 325 321 321 320 310 315 313 299 289 281 279 282 302 311 308 304 300 292 294 285 287 259 268 275 285 299 300 301 303 318 357 28
333 338 338 332 331 334 341 306 307 311 317 327 318 315 318 319 322 307 290 296 280 269 272 273 282 296 307 303 301 293 281 286 284 276 289 298 303 297 295 320 358 47 18
323 330 333 331 326 324 320 303 304 304 309 310 311 313 310 315 320 310 293 275 263 264 269 271 273 286 293 292 287 283 280 277 298 293 290 323 351 6 359 1 356 345 318
316 320 312 309 312 319 318 311 306 312 302 295 299 307 306 298 302 308 298 287 273 266 268 265 260 264 274 285 297 293 280 264 283 36 18 29 59 28 3 12 14 4 358
309 313 311 307 310 317 316 313 306 297 285 294 296 296 299 302 307 316 332 335 321 321 321 313 291 283 290 296 292 294 296 301 156 110 182 210 229 249 290 301 319 326 330
Height
1502 1503 1504 1505 1506 1507 1508 1509 1510 1511 1512 1513 1514 1515 1516 1517 1519 1520 1521 1521 1522 1522 1522 1522 1523 1523 1523 1523 1523 1523 1523 1522 1522 1522 1522 1522 1522 1521 1520 1519 1518 1516 1515
1501 1502 1503 1504 1504 1505 1506 1507 1508 1509 1510 1511 1512 1513 1515 1516 1517 1518 1519 1520 1520 1520 1520 1521 1520 1520 1521 1521 1521 1521 1521 1521 1521 1521 1520 1520 1521 1519 1519 1518 1516 1515 1513
1499 1500 1501 1502 1503 1504 1505 1506 1507 1508 1509 1510 1511 1512 1513 1514 1515 1516 1517 1518 1518 1519 1519 1519 1518 1518 1518 1518 1519 1519 1519 1519 1520 1520 1520 1519 1519 1518 1517 1516 1515 1513 1511
1498 1499 1500 1501 1502 1503 1504 1505 1506 1506 1507 1508 1509 1509 1510 1511 1512 1513 1515 1516 1516 1516 1517 1517 1516 1517 1517 1517 1517 1518 1518 1518 1518 1519 1519 1519 1518 1517 1515 1514 1512 1511 1509
1496 1497 1499 1500 1501 1502 1503 1503 1504 1505 1506 1506 1507 1508 1509 1510 1511 1512 1513 1513 1514 1514 1515 1515 1515 1515 1515 1515 1516 1516 1516 1516 1516 1516 1516 1516 1516 1515 1514 1511 1509 1508 1507
1494 1496 1497 1499 1500 1500 1501 1502 1503 1504 1504 1505 1505 1506 1507 1508 1508 1509 1510 1511 1511 1512 1512 1513 1513 1513 1513 1514 1514 1514 1514 1514 1515 1515 1515 1514 1513 1512 1512 1509 1507 1505 1504
1492 1494 1495 1497 1498 1499 1499 1500 1501 1502 1502 1503 1504 1504 1505 1506 1506 1507 1507 1508 1508 1509 1510 1510 1510 1511 1511 1512 1512 1512 1512 1512 1512 1512 1512 1512 1511 1511 1510 1508 1506 1503 1501
1491 1492 1494 1495 1496 1497 1498 1499 1499 1500 1500 1501 1501 1502 1503 1504 1504 1505 1505 1505 1506 1507 1507 1507 1508 1509 1509 1509 1510 1510 1510 1510 1510 1510 1510 1510 1509 1508 1508 1506 1504 1501 1499
1490 1491 1492 1494 1495 1495 1496 1497 1497 1498 1499 1499 1500 1500 1501 1501 1502 1503 1503 1503 1504 1504 1505 1505 1506 1506 1506 1507 1507 1507 1507 1507 1508 1508 1507 1507 1506 1506 1505 1504 1503 1501 1497
1489 1490 1491 1492 1493 1494 1495 1496 1496 1497 1497 1498 1498 1498 1499 1499 1500 1500 1500 1501 1501 1502 1502 1503 1503 1504 1504 1504 1504 1504 1504 1505 1505 1504 1504 1504 1503 1503 1502 1501 1500 1499 1497
1489 1490 1490 1491 1492 1493 1494 1494 1495 1495 1496 1496 1496 1496 1497 1497 1498 1498 1498 1499 1499 1499 1500 1500 1500 1501 1501 1501 1501 1502 1502 1502 1501 1501 1501 1500 1500 1499 1499 1498 1497 1496 1494
1489 1489 1490 1491 1491 1492 1492 1492 1493 1494 1494 1494 1495 1495 1495 1495 1495 1496 1496 1496 1497 1497 1497 1498 1498 1498 1498 1498 1498 1499 1499 1498 1498 1498 1497 1497 1497 1496 1495 1495 1494 1493 1491
1489 1489 1489 1490 1490 1491 1491 1491 1492 1492 1493 1493 1493 1493 1493 1493 1493 1493 1494 1494 1494 1495 1495 1495 1495 1495 1495 1495 1495 1495 1495 1495 1495 1495 1494 1494 1493 1493 1492 1491 1490 1489 1488
1489 1489 1489 1489 1489 1490 1490 1490 1490 1490 1491 1491 1491 1491 1491 1491 1491 1491 1491 1491 1492 1492 1492 1492 1492 1492 1492 1492 1492 1492 1492 1492 1492 1491 1491 1490 1490 1489 1489 1488 1487 1486 1485
1489 1488 1488 1488 1488 1488 1488 1488 1488 1489 1489 1489 1489 1489 1489 1489 1489 1489 1489 1489 1489 1489 1489 1489 1489 1489 1489 1489 1489 1489 1489 1489 1488 1488 1487 1487 1487 1486 1485 1484 1483 1482 1481
1488 1488 1488 1487 1487 1487 1487 1486 1486 1487 1487 1487 1487 1487 1487 1487 1486 1486 1486 1486 1486 1486 1486 1486 1486 1486 1486 1486 1486 1486 1485 1485 1485 1484 1484 1484 1483 1483 1482 1481 1480 1480 1478
1488 1487 1487 1486 1486 1485 1485 1484 1484 1484 1484 1484 1484 1485 1485 1484 1484 1484 1484 1483 1483 1483 1483 1483 1483 1483 1483 1483 1483 1483 1482 1482 1481 1481 1481 1480 1480 1479 1479 1478 1477 1476 1475
1487 1486 1485 1484 1484 1483 1483 1483 1482 1482 1482 1482 1482 1482 1482 1482 1482 1482 1481 1481 1481 1480 1480 1480 1480 1480 1480 1480 1480 1480 1479 1479 1478 1478 1477 1477 1476 1476 1475 1474 1473 1472 1471
1485 1484 1483 1483 1482 1481 1481 1480 1480 1480 1480 1480 1479 1480 1480 1479 1479 1479 1479 1478 1478 1478 1477 1477 1477 1477 1477 1477 1477 1477 1476 1475 1475 1474 1474 1474 1473 1473 1472 1471 1470 1469 1468
1484 1482 1482 1481 1480 1479 1479 1478 1478 1478 1477 1477 1477 1477 1477 1476 1476 1476 1476 1476 1475 1475 1474 1474 1474 1474 1473 1474 1474 1474 1473 1472 1472 1471 1471 1470 1470 1470 1469 1468 1467 1465 1465
1482 1481 1480 1479 1478 1478 1477 1476 1476 1476 1475 1475 1475 1474 1474 1474 1474 1473 1473 1473 1472 1472 1472 1471 1471 1471 1470 1470 1470 1470 1470 1469 1468 1468 1468 1467 1467 1466 1466 1465 1464 1463 1462
1480 1479 1478 1477 1477 1476 1475 1474 1474 1473 1473 1473 1472 1472 1471 1471 1470 1470 1470 1470 1470 1469 1468 1468 1468 1467 1467 1467 1467 1467 1467 1466 1466 1465 1465 1464 1464 1463 1463 1462 1462 1461 1460
1479 1478 1477 1476 1475 1474 1474 1472 1472 1472 1472 1471 1470 1469 1469 1468 1467 1467 1467 1467 1466 1466 1465 1465 1465 1464 1464 1464 1464 1464 1464 1463 1463 1462 1462 1461 1461 1461 1460 1460 1459 1458 1457
1477 1476 1475 1474 1473 1473 1472 1471 1470 1470 1469 1467 1467 1466 1466 1465 1465 1465 1465 1464 1464 1463 1463 1462 1462 1462 1462 1461 1461 1461 1461 1460 1460 1459 1459 1458 1458 1458 1457 1457 1456 1456 1455
1475 1474 1473 1472 1471 1470 1469 1469 1468 1467 1466 1465 1464 1464 1463 1462 1462 1462 1462 1461 1461 1461 1461 1460 1460 1459 1459 1459 1459 1458 1458 1457 1457 1456 1456 1455 1455 1455 1454 1454 1453 1453 1452
1473 1472 1471 1470 1469 1468 1467 1466 1465 1464 1463 1462 1461 1461 1460 1460 1459 1459 1459 1458 1459 1458 1458 1457 1457 1456 1457 1456 1456 1455 1455 1455 1454 1454 1453 1452 1452 1452 1451 1451 1451 1450 1450